Malaysia Virtual Airlines Airport Information Service

Paris - Charles-de-Gaulle

ICAO: LFPG Country: France
Latitude: 49.0128 Longitude: 2.55
Latest Arrival : AA44 (KJFK-LFPG) Latest Departure : MH9262 (LFPG-EFHK)


WX CaptureLIVE
Data provided by noaa.gov | Fetched at 16:25:49

METAR : LFPG 261600Z 25010KT 220V280 9999 FEW038CB SCT039 24/15 Q1012 TEMPO 3000 TSRA BKN012CB

TAF : LFPG 261100Z 2612/2718 25010KT 9999 FEW012 BKN020 TX23/2614Z TN16/2704Z TEMPO 2612/2619 3500 SHRA BKN020TCU PROB40 TEMPO 2612/2618 2000 TSRA SCT012CB BECMG 2622/2624 CAVOK TEMPO 2707/2711 BKN011 BECMG 2709/2711 BKN015TCU


Runway Data for LFPG
Data provided by openaviationdata.com

Runway ID Mag Var Hdg Length Elevation Surface ILS Freq ILS Id ILS Slope
08L -2 87° 13944 ft 392 ft Macadam 108.7 GLE 3
08R -2 87° 8832 ft 392 ft Concrete 108.55 DSE 3
09L -2 87° 8840 ft 392 ft Tarmac 109.35 PNE 3
09R -2 87° 13780 ft 392 ft Macadam 110.1 CGE 3
26L -2 267° 8832 ft 392 ft Concrete 108.35 DSU 3
26R -2 267° 13944 ft 392 ft Macadam 109.1 GAU 3
27L -2 267° 13780 ft 392 ft Macadam 110.7 CGW 3
27R -2 267° 8840 ft 392 ft Tarmac 110.35 PNW 3

Paris - Charles-de-Gaulle, France
Use only for reference purposes



Not for navigational purposes.